Location: Beutels
(47.8767°N, 9.8584°E)
Time: 10:00:10
(UTC+00:00)

CENTAUR R/B - Pass Details

Date: 19 May 2025
Orbit: 644 x 1537 km, 63.4° (Epoch: 23 June)

Event Time Altitude Azimuth Distance (km) Brightness Sun altitude
Rises 21:22:50 0° 313° (NW) 3,950 7.1 -17.5°
Reaches altitude 10° 21:25:37 10° 322° (NW) 3,120 6.4 -17.7°
Maximum altitude 21:32:42 37° 29° (NNE) 1,979 4.4 -18.2°
Drops below altitude 10° 21:40:54 10° 94° (E) 3,627 5.2 -18.8°
Sets 21:44:23 0° 102° (ESE) 4,661 5.7 -19.0°
Enters shadow 21:44:31 - 102° (ESE) 4,702 5.7 -19.0°
